| time (UTC) | temp C | wind direction | speed KPH | gust KPH | rain 1hr cm | rain 24hr cm | rain mn cm | humidity % | barometer mb |
| 20260509013635 | 28 | 344 | 3.2 | 6.4 | 0.00 | 0.00 | 0.00 | 70 | 1013.9 |
| 20260509013135 | 28 | 340 | 3.2 | 8.0 | 0.00 | 0.00 | 0.00 | 70 | 1013.8 |
| 20260509012035 | 28 | 325 | 3.2 | 6.4 | 0.00 | 0.00 | 0.00 | 70 | 1013.6 |
| 20260509011535 | 28 | 320 | 3.2 | 8.0 | 0.00 | 0.00 | 0.00 | 70 | 1013.6 |
| 20260509011035 | 28 | 321 | 3.2 | 8.0 | 0.00 | 0.00 | 0.00 | 70 | 1013.5 |
| 20260509010535 | 28 | 320 | 3.2 | 6.4 | 0.00 | 0.00 | 0.00 | 68 | 1013.5 |
| 20260509010006 | 29 | 313 | 4.8 | 8.0 | 0.00 | 0.00 | 0.00 | 67 | 1013.4 |
| 20260509005505 | 29 | 311 | 4.8 | 8.0 | 0.00 | 0.00 | 0.00 | 67 | 1013.3 |
| 20260509004935 | 29 | 313 | 4.8 | 11.3 | 0.00 | 0.00 | 0.00 | 66 | 1013.2 |
| 20260509004405 | 29 | 316 | 4.8 | 11.3 | 0.00 | 0.00 | 0.00 | 65 | 1013.1 |
| 20260509003836 | 30 | 316 | 3.2 | 6.4 | 0.00 | 0.00 | 0.00 | 65 | 1013.0 |
| 20260509002805 | 30 | 312 | 3.2 | 6.4 | 0.00 | 0.00 | 0.00 | 65 | 1012.8 |
| 20260509002236 | 30 | 308 | 3.2 | 6.4 | 0.00 | 0.00 | 0.00 | 64 | 1012.7 |
| 20260509001705 | 30 | 301 | 3.2 | 4.8 | 0.00 | 0.00 | 0.00 | 62 | 1012.6 |
| 20260509001205 | 31 | 292 | 3.2 | 9.7 | 0.00 | 0.00 | 0.00 | 61 | 1012.4 |
| 20260508235535 | 31 | 286 | 6.4 | 14.5 | 0.00 | 0.00 | 0.00 | 58 | 1012.0 |
| 20260508235005 | 31 | 283 | 4.8 | 14.5 | 0.00 | 0.00 | 0.00 | 58 | 1011.9 |
| 20260508234603 | 31 | 280 | 4.8 | 14.5 | 0.00 | 0.00 | 0.00 | 58 | 1011.8 |
| 20260508234505 | 31 | 280 | 4.8 | 14.5 | 0.00 | 0.00 | 0.00 | 58 | 1011.8 |
| 20260508232905 | 32 | 268 | 4.8 | 14.5 | 0.00 | 0.00 | 0.00 | 57 | 1011.7 |
| 20260508232335 | 32 | 261 | 4.8 | 11.3 | 0.00 | 0.00 | 0.00 | 57 | 1011.7 |
| 20260508231835 | 32 | 252 | 4.8 | 11.3 | 0.00 | 0.00 | 0.00 | 57 | 1011.6 |
| 20260508231532 | 32 | 246 | 4.8 | 11.3 | 0.00 | 0.00 | 0.00 | 56 | 1011.5 |
| 20260508231305 | 32 | 246 | 4.8 | 11.3 | 0.00 | 0.00 | 0.00 | 56 | 1011.5 |
| 20260508230805 | 32 | 241 | 4.8 | 11.3 | 0.00 | 0.00 | 0.00 | 56 | 1011.4 |
| 20260508230305 | 32 | 233 | 3.2 | 11.3 | 0.00 | 0.00 | 0.00 | 54 | 1011.4 |
| 20260508225235 | 32 | 240 | 3.2 | 9.7 | 0.00 | 0.00 | 0.00 | 54 | 1011.3 |
| 20260508224833 | 32 | 248 | 3.2 | 9.7 | 0.00 | 0.00 | 0.00 | 53 | 1011.4 |
| 20260508224735 | 32 | 248 | 3.2 | 9.7 | 0.00 | 0.00 | 0.00 | 53 | 1011.4 |
| 20260508224235 | 32 | 257 | 3.2 | 8.0 | 0.00 | 0.00 | 0.00 | 53 | 1011.2 |
| 20260508223735 | 32 | 254 | 3.2 | 9.7 | 0.00 | 0.00 | 0.00 | 52 | 1011.2 |
| 20260508223235 | 32 | 256 | 3.2 | 9.7 | 0.00 | 0.00 | 0.00 | 51 | 1011.2 |
| 20260508222735 | 33 | 261 | 3.2 | 8.0 | 0.00 | 0.00 | 0.00 | 51 | 1011.2 |
| 20260508222205 | 33 | 258 | 3.2 | 8.0 | 0.00 | 0.00 | 0.00 | 51 | 1011.1 |
| 20260508221705 | 33 | 247 | 1.6 | 8.0 | 0.00 | 0.00 | 0.00 | 50 | 1011.2 |
| 20260508221135 | 33 | 206 | 1.6 | 3.2 | 0.00 | 0.00 | 0.00 | 50 | 1011.1 |
| 20260508220635 | 33 | 163 | 1.6 | 3.2 | 0.00 | 0.00 | 0.00 | 52 | 1011.2 |
| 20260508220105 | 33 | 133 | 1.6 | 4.8 | 0.00 | 0.00 | 0.00 | 54 | 1011.3 |
| 20260508215535 | 33 | 93 | 3.2 | 9.7 | 0.00 | 0.00 | 0.00 | 53 | 1011.3 |
| 20260508215035 | 33 | 89 | 3.2 | 9.7 | 0.00 | 0.00 | 0.00 | 51 | 1011.2 |
| 20260508214535 | 33 | 108 | 1.6 | 9.7 | 0.00 | 0.00 | 0.00 | 52 | 1011.3 |
| 20260508214035 | 33 | 117 | 1.6 | 4.8 | 0.00 | 0.00 | 0.00 | 52 | 1011.2 |
| 20260508213505 | 33 | 107 | 3.2 | 6.4 | 0.00 | 0.00 | 0.00 | 50 | 1011.2 |
| 20260508213005 | 34 | 108 | 4.8 | 6.4 | 0.00 | 0.00 | 0.00 | 53 | 1011.2 |
| 20260508212505 | 34 | 105 | 4.8 | 6.4 | 0.00 | 0.00 | 0.00 | 52 | 1011.3 |
| 20260508211935 | 34 | 105 | 4.8 | 9.7 | 0.00 | 0.00 | 0.00 | 52 | 1011.3 |
| 20260508211405 | 34 | 108 | 4.8 | 11.3 | 0.00 | 0.00 | 0.00 | 51 | 1011.3 |
| 20260508210835 | 34 | 107 | 3.2 | 11.3 | 0.00 | 0.00 | 0.00 | 51 | 1011.4 |
| 20260508210335 | 34 | 112 | 1.6 | 4.8 | 0.00 | 0.00 | 0.00 | 52 | 1011.4 |
| 20260508205835 | 34 | 109 | 3.2 | 9.7 | 0.00 | 0.00 | 0.00 | 53 | 1011.4 |
| 20260508205306 | 34 | 106 | 4.8 | 9.7 | 0.00 | 0.00 | 0.00 | 52 | 1011.5 |
| 20260508204805 | 34 | 104 | 4.8 | 9.7 | 0.00 | 0.00 | 0.00 | 52 | 1011.6 |
| 20260508204235 | 33 | 97 | 3.2 | 9.7 | 0.00 | 0.00 | 0.00 | 54 | 1011.6 |
| 20260508203735 | 33 | 106 | 1.6 | 9.7 | 0.00 | 0.00 | 0.00 | 53 | 1011.7 |
| 20260508203205 | 33 | 121 | 1.6 | 4.8 | 0.00 | 0.00 | 0.00 | 53 | 1011.9 |
| 20260508202705 | 33 | 118 | 1.6 | 4.8 | 0.00 | 0.00 | 0.00 | 52 | 1012.0 |
| 20260508202135 | 34 | 121 | 1.6 | 4.8 | 0.00 | 0.00 | 0.00 | 52 | 1012.0 |
| 20260508201635 | 34 | 124 | 1.6 | 6.4 | 0.00 | 0.00 | 0.00 | 51 | 1012.0 |
| 20260508200535 | 35 | 97 | 4.8 | 9.7 | 0.00 | 0.00 | 0.00 | 52 | 1012.1 |
| 20260508200005 | 35 | 99 | 4.8 | 11.3 | 0.00 | 0.00 | 0.00 | 50 | 1012.2 |
| 20260508195622 | 35 | 115 | 4.8 | 11.3 | 0.00 | 0.00 | 0.00 | 54 | 1012.2 |
| 20260508195505 | 35 | 115 | 4.8 | 11.3 | 0.00 | 0.00 | 0.00 | 54 | 1012.2 |
| 20260508195005 | 35 | 112 | 4.8 | 11.3 | 0.00 | 0.00 | 0.00 | 51 | 1012.2 |
| 20260508194629 | 35 | 98 | 4.8 | 14.5 | 0.00 | 0.00 | 0.00 | 53 | 1012.3 |
| 20260508194505 | 35 | 98 | 4.8 | 14.5 | 0.00 | 0.00 | 0.00 | 53 | 1012.3 |
| 20260508193505 | 35 | 103 | 9.7 | 19.3 | 0.00 | 0.00 | 0.00 | 52 | 1012.6 |
| 20260508193005 | 35 | 102 | 4.8 | 19.3 | 0.00 | 0.00 | 0.00 | 53 | 1012.6 |
| 20260508192505 | 35 | 103 | 6.4 | 12.9 | 0.00 | 0.00 | 0.00 | 51 | 1012.7 |
| 20260508192005 | 36 | 105 | 6.4 | 12.9 | 0.00 | 0.00 | 0.00 | 52 | 1012.8 |
| 20260508191505 | 36 | 109 | 4.8 | 12.9 | 0.00 | 0.00 | 0.00 | 50 | 1012.9 |
| 20260508185405 | 34 | 55 | 3.2 | 6.4 | 0.00 | 0.00 | 0.00 | 54 | 1013.3 |
| 20260508184835 | 34 | 340 | 3.2 | 8.0 | 0.00 | 0.00 | 0.00 | 53 | 1013.4 |
| 20260508184335 | 34 | 213 | 3.2 | 8.0 | 0.00 | 0.00 | 0.00 | 53 | 1013.5 |
| 20260508183835 | 34 | 165 | 3.2 | 11.3 | 0.00 | 0.00 | 0.00 | 52 | 1013.7 |
| 20260508183305 | 35 | 89 | 3.2 | 11.3 | 0.00 | 0.00 | 0.00 | 54 | 1013.7 |
| 20260508182735 | 34 | 60 | 3.2 | 11.3 | 0.00 | 0.00 | 0.00 | 53 | 1013.7 |
| 20260508182235 | 34 | 308 | 3.2 | 6.4 | 0.00 | 0.00 | 0.00 | 53 | 1013.8 |
| 20260508181705 | 33 | 322 | 3.2 | 6.4 | 0.00 | 0.00 | 0.00 | 53 | 1013.9 |
| 20260508181135 | 33 | 28 | 3.2 | 6.4 | 0.00 | 0.00 | 0.00 | 54 | 1013.9 |
| 20260508180635 | 33 | 82 | 3.2 | 4.8 | 0.00 | 0.00 | 0.00 | 55 | 1014.0 |
| 20260508180105 | 33 | 100 | 3.2 | 9.7 | 0.00 | 0.00 | 0.00 | 58 | 1014.2 |
| 20260508175605 | 32 | 141 | 3.2 | 9.7 | 0.00 | 0.00 | 0.00 | 62 | 1014.2 |
| 20260508175035 | 32 | 256 | 1.6 | 4.8 | 0.00 | 0.00 | 0.00 | 60 | 1014.3 |
| 20260508174505 | 31 | 248 | 1.6 | 4.8 | 0.00 | 0.00 | 0.00 | 60 | 1014.4 |
| 20260508174006 | 32 | 168 | 3.2 | 6.4 | 0.00 | 0.00 | 0.00 | 58 | 1014.3 |
| 20260508173506 | 32 | 103 | 4.8 | 11.3 | 0.00 | 0.00 | 0.00 | 57 | 1014.4 |
| 20260508172505 | 32 | 90 | 4.8 | 12.9 | 0.00 | 0.00 | 0.00 | 57 | 1014.5 |
| 20260508171935 | 33 | 108 | 3.2 | 6.4 | 0.00 | 0.00 | 0.00 | 59 | 1014.6 |
| 20260508171405 | 33 | 114 | 3.2 | 9.7 | 0.00 | 0.00 | 0.00 | 60 | 1014.6 |
| 20260508170835 | 32 | 101 | 4.8 | 9.7 | 0.00 | 0.00 | 0.00 | 58 | 1014.7 |
| 20260508170305 | 32 | 104 | 4.8 | 9.7 | 0.00 | 0.00 | 0.00 | 60 | 1014.7 |
| 20260508165805 | 32 | 129 | 1.6 | 6.4 | 0.00 | 0.00 | 0.00 | 61 | 1014.9 |
| 20260508165307 | 32 | 18 | 1.6 | 6.4 | 0.00 | 0.00 | 0.00 | 61 | 1014.9 |
| 20260508164805 | 32 | 39 | 3.2 | 4.8 | 0.00 | 0.00 | 0.00 | 60 | 1015.0 |
| 20260508164305 | 32 | 33 | 3.2 | 6.4 | 0.00 | 0.00 | 0.00 | 61 | 1015.1 |
| 20260508163735 | 32 | 8 | 3.2 | 6.4 | 0.00 | 0.00 | 0.00 | 63 | 1015.2 |
| 20260508163235 | 31 | 350 | 3.2 | 6.4 | 0.00 | 0.00 | 0.00 | 62 | 1015.4 |
| 20260508162735 | 31 | 20 | 3.2 | 6.4 | 0.00 | 0.00 | 0.00 | 62 | 1015.4 |
| 20260508162435 | 31 | 357 | 3.2 | 6.4 | 0.00 | 0.00 | 0.00 | 62 | 1015.5 |
| 20260508162235 | 31 | 357 | 3.2 | 6.4 | 0.00 | 0.00 | 0.00 | 62 | 1015.5 |
| 20260508161735 | 31 | 338 | 3.2 | 6.4 | 0.00 | 0.00 | 0.00 | 63 | 1015.5 |
| 20260508160705 | 31 | 349 | 1.6 | 4.8 | 0.00 | 0.00 | 0.00 | 64 | 1015.7 |
| 20260508155135 | 31 | 351 | 3.2 | 4.8 | 0.00 | 0.00 | 0.00 | 66 | 1015.8 |
| 20260508154753 | 31 | 314 | 3.2 | 6.4 | 0.00 | 0.00 | 0.00 | 65 | 1015.9 |
| 20260508154635 | 31 | 314 | 3.2 | 6.4 | 0.00 | 0.00 | 0.00 | 65 | 1015.9 |
| 20260508154135 | 31 | 360 | 3.2 | 6.4 | 0.00 | 0.00 | 0.00 | 66 | 1016.0 |
| 20260508153635 | 31 | 344 | 3.2 | 8.0 | 0.00 | 0.00 | 0.00 | 68 | 1016.1 |
| 20260508153105 | 30 | 325 | 3.2 | 8.0 | 0.00 | 0.00 | 0.00 | 69 | 1016.1 |
| 20260508152035 | 30 | 331 | 3.2 | 4.8 | 0.00 | 0.00 | 0.00 | 69 | 1016.3 |
| 20260508145035 | 30 | 334 | 4.8 | 9.7 | 0.00 | 0.00 | 0.00 | 72 | 1016.4 |
| 20260508144505 | 30 | 360 | 3.2 | 8.0 | 0.00 | 0.00 | 0.00 | 73 | 1016.4 |
| 20260508144005 | 29 | 16 | 3.2 | 6.4 | 0.00 | 0.00 | 0.00 | 76 | 1016.4 |
| 20260508142935 | 28 | 330 | 3.2 | 6.4 | 0.00 | 0.00 | 0.00 | 79 | 1016.5 |
| 20260508141905 | 28 | 323 | 3.2 | 6.4 | 0.00 | 0.00 | 0.00 | 79 | 1016.3 |
| 20260508140835 | 28 | 5 | 3.2 | 6.4 | 0.00 | 0.00 | 0.00 | 81 | 1016.4 |
| 20260508140335 | 28 | 357 | 3.2 | 6.4 | 0.00 | 0.00 | 0.00 | 81 | 1016.4 |
| 20260508135835 | 27 | 353 | 3.2 | 6.4 | 0.00 | 0.00 | 0.00 | 83 | 1016.4 |
| 20260508135306 | 27 | 342 | 3.2 | 6.4 | 0.00 | 0.00 | 0.00 | 84 | 1016.4 |
| 20260508134805 | 27 | 324 | 3.2 | 6.4 | 0.00 | 0.00 | 0.00 | 84 | 1016.4 |
| 20260508134305 | 26 | 329 | 3.2 | 6.4 | 0.00 | 0.00 | 0.00 | 86 | 1016.4 |
| 20260508133805 | 26 | 319 | 3.2 | 6.4 | 0.00 | 0.00 | 0.00 | 86 | 1016.3 |
| 20260508133235 | 26 | 318 | 3.2 | 6.4 | 0.00 | 0.00 | 0.00 | 86 | 1016.3 |
| 20260508132735 | 26 | 317 | 3.2 | 6.4 | 0.00 | 0.00 | 0.00 | 87 | 1016.3 |
| 20260508132235 | 26 | 317 | 3.2 | 6.4 | 0.00 | 0.00 | 0.00 | 88 | 1016.3 |
| 20260508131735 | 26 | 329 | 3.2 | 4.8 | 0.00 | 0.00 | 0.00 | 89 | 1016.4 |
| 20260508131205 | 26 | 321 | 3.2 | 4.8 | 0.00 | 0.00 | 0.00 | 89 | 1016.2 |
| 20260508130205 | 26 | 336 | 3.2 | 6.4 | 0.00 | 0.00 | 0.00 | 89 | 1016.3 |
| 20260508125705 | 26 | 331 | 3.2 | 6.4 | 0.00 | 0.00 | 0.00 | 90 | 1016.2 |
| 20260508125136 | 25 | 300 | 3.2 | 9.7 | 0.00 | 0.00 | 0.00 | 90 | 1016.2 |
| 20260508124635 | 25 | 290 | 3.2 | 9.7 | 0.00 | 0.00 | 0.00 | 91 | 1016.2 |
| 20260508124105 | 25 | 285 | 3.2 | 6.4 | 0.00 | 0.00 | 0.00 | 91 | 1016.2 |
| 20260508123715 | 25 | 285 | 3.2 | 6.4 | 0.00 | 0.00 | 0.00 | 92 | 1016.1 |
| 20260508123606 | 25 | 285 | 3.2 | 6.4 | 0.00 | 0.00 | 0.00 | 92 | 1016.1 |
| 20260508120905 | 24 | 292 | 1.6 | 6.4 | 0.00 | 0.00 | 0.00 | 94 | 1015.8 |
| 20260508120335 | 24 | 290 | 1.6 | 6.4 | 0.00 | 0.00 | 0.00 | 94 | 1015.7 |
| 20260508115815 | 23 | 287 | 1.6 | 3.2 | 0.00 | 0.00 | 0.00 | 95 | 1015.6 |
| 20260508115805 | 23 | 287 | 1.6 | 6.4 | 0.00 | 0.00 | 0.00 | 94 | 1015.7 |
| 20260508115235 | 23 | 287 | 1.6 | 3.2 | 0.00 | 0.00 | 0.00 | 95 | 1015.6 |
| 20260508114205 | 23 | 299 | 1.6 | 4.8 | 0.00 | 0.00 | 0.00 | 95 | 1015.3 |
| 20260508112635 | 23 | 299 | 1.6 | 3.2 | 0.00 | 0.00 | 0.00 | 96 | 1015.3 |
| 20260508112338 | 23 | 294 | 1.6 | 3.2 | 0.00 | 0.00 | 0.00 | 96 | 1015.1 |
| 20260508112135 | 23 | 294 | 1.6 | 3.2 | 0.00 | 0.00 | 0.00 | 96 | 1015.1 |
| 20260508111605 | 22 | 297 | 1.6 | 3.2 | 0.00 | 0.00 | 0.00 | 96 | 1015.1 |
| 20260508110505 | 22 | 294 | 1.6 | 3.2 | 0.00 | 0.00 | 0.00 | 97 | 1015.1 |
| 20260508105435 | 22 | 279 | 1.6 | 3.2 | 0.00 | 0.00 | 0.00 | 98 | 1014.7 |
| 20260508104905 | 22 | 282 | 1.6 | 3.2 | 0.00 | 0.00 | 0.00 | 98 | 1014.7 |
| 20260508104405 | 22 | 286 | 1.6 | 3.2 | 0.00 | 0.00 | 0.00 | 98 | 1014.6 |
| 20260508103904 | 22 | 287 | 1.6 | 3.2 | 0.00 | 0.00 | 0.00 | 98 | 1014.6 |
| 20260508102805 | 22 | 279 | 1.6 | 1.6 | 0.00 | 0.00 | 0.00 | 98 | 1014.5 |
| 20260508102306 | 22 | 279 | 1.6 | 1.6 | 0.00 | 0.00 | 0.00 | 98 | 1014.5 |
| 20260508101735 | 22 | 279 | 1.6 | 1.6 | 0.00 | 0.00 | 0.00 | 98 | 1014.5 |
| 20260508101235 | 21 | 279 | 1.6 | 1.6 | 0.00 | 0.00 | 0.00 | 98 | 1014.4 |
| 20260508100735 | 21 | 279 | 1.6 | 1.6 | 0.00 | 0.00 | 0.00 | 98 | 1014.3 |
| 20260508094705 | 21 | 279 | 1.6 | 3.2 | 0.00 | 0.00 | 0.00 | 98 | 1014.0 |
| 20260508094204 | 21 | 279 | 1.6 | 1.6 | 0.00 | 0.00 | 0.00 | 98 | 1013.9 |
| 20260508093134 | 21 | 279 | 1.6 | 1.6 | 0.00 | 0.00 | 0.00 | 97 | 1013.8 |
| 20260508092605 | 21 | 279 | 1.6 | 1.6 | 0.00 | 0.00 | 0.00 | 97 | 1013.8 |
| 20260508085505 | 21 | 0 | 0.0 | 1.6 | 0.00 | 0.00 | 0.00 | 96 | 1013.6 |
| 20260508085004 | 21 | 279 | 0.0 | 1.6 | 0.00 | 0.00 | 0.00 | 95 | 1013.7 |
| 20260508084434 | 21 | 279 | 0.0 | 1.6 | 0.00 | 0.00 | 0.00 | 95 | 1013.6 |
| 20260508083904 | 21 | 0 | 0.0 | 0.0 | 0.00 | 0.00 | 0.00 | 95 | 1013.6 |
| 20260508082235 | 22 | 279 | 0.0 | 1.6 | 0.00 | 0.00 | 0.00 | 94 | 1013.7 |
| 20260508081734 | 22 | 280 | 0.0 | 1.6 | 0.00 | 0.00 | 0.00 | 94 | 1013.6 |
| 20260508081206 | 22 | 280 | 0.0 | 1.6 | 0.00 | 0.00 | 0.00 | 94 | 1013.6 |
| 20260508080704 | 22 | 281 | 1.6 | 3.2 | 0.00 | 0.00 | 0.00 | 94 | 1013.6 |
| 20260508080205 | 22 | 281 | 1.6 | 3.2 | 0.00 | 0.00 | 0.00 | 94 | 1013.6 |
| 20260508075634 | 22 | 279 | 1.6 | 3.2 | 0.00 | 0.00 | 0.00 | 94 | 1013.6 |
| 20260508075105 | 22 | 277 | 1.6 | 3.2 | 0.00 | 0.00 | 0.00 | 94 | 1013.6 |
| 20260508073505 | 22 | 283 | 1.6 | 3.2 | 0.00 | 0.00 | 0.00 | 93 | 1013.8 |
| 20260508071405 | 22 | 301 | 1.6 | 3.2 | 0.00 | 0.00 | 0.00 | 93 | 1013.9 |
| 20260508070905 | 22 | 303 | 1.6 | 3.2 | 0.00 | 0.00 | 0.00 | 93 | 1013.9 |
| 20260508070008 | 22 | 294 | 1.6 | 3.2 | 0.00 | 0.00 | 0.00 | 93 | 1013.9 |
| 20260508065905 | 22 | 294 | 1.6 | 3.2 | 0.00 | 0.00 | 0.00 | 93 | 1013.9 |
| 20260508065334 | 22 | 308 | 1.6 | 3.2 | 0.00 | 0.00 | 0.00 | 93 | 1013.8 |
| 20260508064805 | 22 | 297 | 1.6 | 3.2 | 0.00 | 0.00 | 0.00 | 93 | 1013.9 |
| 20260508064609 | 22 | 287 | 1.6 | 3.2 | 0.00 | 0.00 | 0.00 | 93 | 1013.9 |
| 20260508064304 | 22 | 287 | 1.6 | 3.2 | 0.00 | 0.00 | 0.00 | 93 | 1013.9 |
| 20260508063805 | 22 | 298 | 1.6 | 3.2 | 0.00 | 0.00 | 0.00 | 93 | 1013.9 |
| 20260508063305 | 22 | 289 | 1.6 | 6.4 | 0.00 | 0.00 | 0.00 | 93 | 1014.0 |
| 20260508062735 | 22 | 276 | 1.6 | 3.2 | 0.00 | 0.00 | 0.00 | 93 | 1014.0 |
| 20260508062205 | 22 | 273 | 1.6 | 3.2 | 0.00 | 0.00 | 0.00 | 92 | 1014.2 |
| 20260508061134 | 22 | 278 | 1.6 | 3.2 | 0.00 | 0.00 | 0.00 | 91 | 1014.3 |
| 20260508060634 | 22 | 280 | 1.6 | 3.2 | 0.00 | 0.00 | 0.00 | 91 | 1014.3 |
| 20260508060134 | 22 | 279 | 1.6 | 3.2 | 0.00 | 0.00 | 0.00 | 91 | 1014.3 |
| 20260508055604 | 22 | 277 | 1.6 | 3.2 | 0.00 | 0.00 | 0.00 | 91 | 1014.4 |
| 20260508055105 | 22 | 277 | 1.6 | 3.2 | 0.00 | 0.00 | 0.00 | 90 | 1014.4 |
| 20260508053535 | 22 | 305 | 1.6 | 3.2 | 0.00 | 0.00 | 0.00 | 89 | 1014.6 |
| 20260508052504 | 22 | 291 | 1.6 | 3.2 | 0.00 | 0.00 | 0.00 | 89 | 1014.7 |
| 20260508051504 | 22 | 288 | 1.6 | 3.2 | 0.00 | 0.00 | 0.00 | 88 | 1014.6 |
| 20260508050435 | 23 | 303 | 1.6 | 3.2 | 0.00 | 0.00 | 0.00 | 86 | 1014.7 |
| 20260508045435 | 23 | 305 | 1.6 | 3.2 | 0.00 | 0.00 | 0.00 | 86 | 1014.8 |
| 20260508044406 | 23 | 311 | 1.6 | 3.2 | 0.00 | 0.00 | 0.00 | 85 | 1014.7 |
| 20260508043906 | 23 | 291 | 1.6 | 3.2 | 0.00 | 0.00 | 0.00 | 84 | 1014.7 |
| 20260508043550 | 23 | 278 | 1.6 | 4.8 | 0.00 | 0.00 | 0.00 | 84 | 1014.8 |
| 20260508043501 | 23 | 278 | 1.6 | 4.8 | 0.00 | 0.00 | 0.00 | 84 | 1014.8 |
| 20260508043335 | 23 | 278 | 1.6 | 4.8 | 0.00 | 0.00 | 0.00 | 84 | 1014.8 |
| 20260508043302 | 23 | 277 | 1.6 | 4.8 | 0.00 | 0.00 | 0.00 | 83 | 1014.9 |
| 20260508042805 | 23 | 277 | 1.6 | 4.8 | 0.00 | 0.00 | 0.00 | 83 | 1014.9 |
| 20260508042627 | 23 | 281 | 1.6 | 3.2 | 0.00 | 0.00 | 0.00 | 82 | 1014.8 |
| 20260508042307 | 23 | 281 | 1.6 | 3.2 | 0.00 | 0.00 | 0.00 | 82 | 1014.8 |
| 20260508041924 | 23 | 287 | 1.6 | 3.2 | 0.00 | 0.00 | 0.00 | 81 | 1014.8 |
| 20260508041735 | 23 | 287 | 1.6 | 3.2 | 0.00 | 0.00 | 0.00 | 81 | 1014.8 |
| 20260508040205 | 24 | 294 | 1.6 | 3.2 | 0.00 | 0.00 | 0.00 | 80 | 1014.8 |
| 20260508034245 | 24 | 295 | 1.6 | 3.2 | 0.00 | 0.00 | 0.00 | 79 | 1014.7 |
| 20260508034034 | 24 | 295 | 1.6 | 3.2 | 0.00 | 0.00 | 0.00 | 79 | 1014.7 |
| 20260508031435 | 25 | 309 | 3.2 | 4.8 | 0.00 | 0.00 | 0.00 | 76 | 1014.7 |
| 20260508030934 | 25 | 302 | 3.2 | 4.8 | 0.00 | 0.00 | 0.00 | 75 | 1014.6 |
| 20260508030434 | 25 | 306 | 3.2 | 4.8 | 0.00 | 0.00 | 0.00 | 75 | 1014.4 |
| 20260508030000 | 25 | 309 | 3.2 | 4.8 | 0.00 | 0.00 | 0.00 | 74 | 1014.5 |
| 20260508025905 | 25 | 309 | 3.2 | 4.8 | 0.00 | 0.00 | 0.00 | 74 | 1014.5 |
| 20260508024437 | 25 | 312 | 3.2 | 4.8 | 0.00 | 0.00 | 0.00 | 71 | 1014.5 |
| 20260508024304 | 25 | 312 | 3.2 | 4.8 | 0.00 | 0.00 | 0.00 | 71 | 1014.5 |
| 20260508023833 | 26 | 311 | 3.2 | 4.8 | 0.00 | 0.00 | 0.00 | 70 | 1014.5 |
| 20260508023734 | 26 | 311 | 3.2 | 4.8 | 0.00 | 0.00 | 0.00 | 70 | 1014.5 |
| 20260508022820 | 26 | 312 | 3.2 | 4.8 | 0.00 | 0.00 | 0.00 | 68 | 1014.5 |
| 20260508022635 | 26 | 312 | 3.2 | 4.8 | 0.00 | 0.00 | 0.00 | 68 | 1014.5 |
| 20260508021035 | 26 | 297 | 3.2 | 11.3 | 0.00 | 0.00 | 0.00 | 65 | 1014.3 |
| 20260508020505 | 26 | 295 | 3.2 | 6.4 | 0.00 | 0.00 | 0.00 | 64 | 1014.3 |
| 20260508015625 | 26 | 298 | 3.2 | 4.8 | 0.00 | 0.00 | 0.00 | 63 | 1014.2 |
| 20260508015505 | 26 | 298 | 3.2 | 4.8 | 0.00 | 0.00 | 0.00 | 63 | 1014.2 |
| 20260508014935 | 27 | 298 | 1.6 | 4.8 | 0.00 | 0.00 | 0.00 | 62 | 1014.1 |
| 20260508014435 | 27 | 294 | 3.2 | 4.8 | 0.00 | 0.00 | 0.00 | 61 | 1014.2 |